Vertical_Velocity
-1 -1 -0 -2 -3 -0 -1 -0 -2 -2 -2 -3 -4 -3 -2 -1 -0 0 -1 -1 -3 -2 -1 1 0 1 2 1 -0 -2 -2 0 -1 -1 0 -1 1 1 -0 -0 -1 -1 1
2 -1 -1 -1 -1 -0 -1 1 0 0 0 -2 -2 -1 -3 -3 -3 -1 -1 0 -1 -2 -1 -1 -1 -1 0 0 2 2 1 0 1 1 -0 -0 0 0 -1 -1 -0 -1 -2
0 0 -0 -3 -2 -1 -2 -1 1 1 -1 -0 -1 -2 -1 -1 -2 -3 -2 -3 -2 -0 -0 -1 -1 -0 -1 0 0 1 0 -1 -1 1 2 1 0 -1 2 1 -1 1 -0
1 2 -1 -2 -2 -1 -3 0 0 0 -1 -0 -1 -1 -1 -2 -1 -1 -4 -3 -2 -0 -2 -0 0 -2 2 1 1 -1 -1 -0 -1 2 1 0 1 -2 -2 -0 2 -0 1
1 -1 -2 0 -2 -2 -2 -2 0 -0 -2 -1 -1 -1 -1 -2 -1 -2 -3 -2 -3 -2 -2 -3 -1 -1 -1 -0 3 0 -2 -1 6 -1 -1 2 0 -1 0 -2 0 0 0
-1 -2 -2 -1 -1 -1 1 -1 2 -1 -0 -1 -1 -0 0 1 0 -0 -2 -4 -2 -3 -5 -4 -3 -0 -2 -3 -5 6 2 -1 -2 0 -0 7 2 0 -1 0 -4 -1 -1
-2 -1 1 -0 -4 -2 3 0 1 0 -1 0 0 -1 1 2 -0 -0 -2 -1 -3 -1 -0 -1 -3 -4 -1 2 -1 -1 0 5 0 2 1 -0 -2 -1 -2 -1 -4 -0 -4
-3 -0 0 -1 -2 -2 -2 -1 2 2 -1 0 -1 0 2 3 1 -0 -0 -1 -1 -1 -0 -2 -1 -2 -3 -2 2 4 0 7 5 -1 -0 -1 -2 1 -1 1 1 -2 -1
-1 -1 -0 -1 -4 -2 1 -0 1 1 -0 0 -1 -0 1 -1 -0 -1 -1 -1 -2 -4 -5 -3 -1 -0 3 2 -4 -0 2 2 9 2 -5 -2 -1 -2 -4 -2 -2 2 -1
0 1 2 0 -4 0 -0 -2 1 0 0 -1 -2 1 1 2 0 -1 0 -1 -2 0 -1 3 -1 0 -4 1 2 -1 6 3 -6 9 -1 -2 -1 0 -2 2 3 0 3
2 1 1 -1 -4 1 -1 -1 0 2 0 0 -2 1 1 0 0 -0 -1 -1 -1 -1 0 -4 -1 1 -3 -0 -2 -4 24 3 -2 5 -1 -2 -1 2 -1 -1 1 16 3
-2 -1 1 -2 -6 1 -0 1 -0 1 1 -1 -2 2 0 1 -0 1 0 0 -1 -3 -2 -0 -2 -3 1 0 1 5 8 -4 -1 -5 -3 0 1 7 2 2 3 -1 3
-3 -3 0 1 -3 3 -0 1 -0 0 0 -2 -1 1 0 1 -1 0 0 -1 1 -0 -1 -4 1 0 -5 -2 1 3 -13 1 26 9 4 -5 -2 -3 -2 -2 -6 -4 -5
3 1 2 2 -2 4 -2 -0 -0 -0 1 -3 2 -0 0 0 1 -1 3 3 -0 -0 -3 -0 -4 -4 -3 -2 -3 -2 -9 -1 -3 -4 -13 -1 4 -2 -0 7 -7 -1 7
-1 -1 -1 -0 -3 1 1 -1 1 0 -1 -2 2 1 -0 -1 -1 0 -1 -1 -2 1 2 4 -1 1 -0 5 0 1 2 -2 -1 1 -1 1 1 1 1 -2 -4 10 -1
-1 1 1 4 -3 -1 1 0 1 -1 -1 -1 0 -0 -0 -1 -1 -2 -0 0 2 -1 -2 2 2 0 -2 -4 1 -6 -1 -0 -3 2 -1 -1 -3 2 -1 -5 0 -5 9
-3 1 -0 4 -1 -0 3 0 -0 0 -1 -1 -1 0 -1 -2 1 -0 -1 0 2 1 -0 1 -1 -3 -3 -2 -7 -9 -8 -2 -2 -3 3 1 -2 1 -1 -1 -4 -1 -8
0 4 -0 4 -0 1 4 -0 0 -2 -1 -2 -3 -3 -3 -1 -0 -1 1 3 1 -1 1 2 -5 0 -2 -5 -5 -7 -6 -3 1 2 -3 -0 0 2 5 -0 -4 -1 -2
-1 1 -2 2 2 -0 3 -1 -0 1 -1 -1 -2 -2 -2 -2 -1 3 0 1 0 -1 -2 -5 -1 -6 -9 0 3 3 -1 -5 -5 -4 -3 -3 -1 -1 0 1 0 -5 -1
0 -1 1 1 2 1 3 2 0 0 -1 -2 -3 -4 -2 2 3 3 -2 -2 -1 1 -0 1 -1 -1 2 0 -0 -9 -5 -1 -3 -1 -3 -3 -4 -0 -1 3 4 1 2
-2 -0 2 0 -1 1 2 1 2 1 2 0 -1 2 4 -0 -0 -0 -2 -4 -2 1 0 -2 -2 -2 -3 -4 -7 -2 6 -3 -7 -4 -2 -1 -3 -2 1 1 1 2 4
-2 -1 -1 0 -1 0 2 2 0 2 -1 -0 -1 -0 -1 -2 -2 -2 -2 -1 0 -3 0 2 1 -3 -1 4 1 -3 -5 -2 2 1 -3 -3 -3 -5 -6 -2 -1 -1 -0
-1 -1 0 -0 -2 -1 -1 -1 -2 -3 -2 -2 -2 -2 -2 -1 -3 -2 -1 -3 -0 0 -2 -3 0 0 -4 -1 -0 4 0 1 -0 0 0 -2 -1 -3 -5 -5 -4 -9 -9
-2 -1 -1 -2 0 -0 -1 -2 -3 -3 -2 -2 -2 -2 -1 -2 -2 -4 -6 -4 -1 -2 -0 -2 -1 -3 1 -3 1 6 6 9 1 4 -2 2 -2 -2 1 -5 -4 -4 -8
-1 -1 -1 -2 1 1 0 -2 -2 -2 -3 0 -0 -2 -1 -2 -1 -2 -1 -1 -6 -2 -1 -3 -2 -3 -1 -2 0 3 8 11 7 10 16 4 3 4 5 12 7 -3 -2
2 0 -2 -0 3 2 -0 -2 -2 -1 -1 -0 -1 -2 -2 -2 -2 -1 -3 -4 -0 -2 -1 -3 -7 -4 -5 -4 -6 -5 -5 -2 2 3 2 2 2 0 -3 -3 -1 1 -2
Height
5906 5905 5902 5900 5899 5897 5895 5893 5891 5888 5886 5882 5879 5876 5873 5870 5867 5864 5861 5859 5857 5854 5852 5850 5848 5846 5844 5842 5840 5838 5837 5835 5833 5832 5832 5832 5832 5830 5829 5828 5827 5827 5828
5905 5903 5902 5901 5899 5897 5895 5892 5890 5888 5885 5882 5878 5875 5872 5869 5866 5863 5860 5858 5856 5853 5851 5849 5847 5845 5843 5842 5840 5838 5837 5836 5834 5832 5832 5831 5830 5830 5829 5828 5827 5826 5825
5905 5903 5902 5901 5899 5896 5894 5892 5889 5887 5885 5882 5878 5875 5872 5868 5864 5862 5859 5856 5854 5852 5850 5848 5847 5845 5842 5840 5839 5836 5835 5834 5833 5831 5830 5829 5828 5827 5828 5827 5827 5826 5825
5905 5904 5902 5900 5898 5896 5894 5891 5889 5886 5884 5881 5878 5874 5870 5866 5863 5860 5857 5855 5852 5850 5847 5846 5844 5844 5842 5840 5837 5835 5833 5833 5831 5829 5828 5827 5826 5826 5826 5826 5826 5826 5825
5905 5904 5901 5899 5897 5895 5893 5890 5888 5886 5883 5880 5876 5873 5868 5865 5861 5859 5856 5853 5850 5847 5845 5843 5841 5839 5838 5837 5836 5833 5832 5831 5829 5827 5825 5825 5824 5825 5825 5824 5824 5825 5824
5904 5902 5900 5898 5897 5894 5892 5890 5887 5885 5882 5878 5875 5871 5866 5863 5860 5856 5853 5851 5849 5847 5844 5840 5836 5834 5833 5833 5833 5833 5831 5828 5827 5825 5824 5823 5822 5822 5822 5823 5822 5822 5823
5902 5900 5898 5897 5895 5893 5890 5888 5886 5882 5879 5876 5873 5869 5864 5861 5857 5854 5851 5849 5847 5844 5840 5837 5833 5830 5827 5826 5827 5827 5829 5828 5826 5824 5822 5820 5819 5819 5818 5819 5821 5819 5820
5900 5898 5897 5895 5893 5891 5889 5886 5883 5881 5877 5874 5870 5867 5863 5860 5856 5853 5850 5848 5844 5840 5836 5834 5830 5826 5821 5818 5819 5821 5821 5824 5824 5821 5819 5817 5816 5815 5814 5815 5817 5817 5817
5898 5896 5894 5893 5891 5888 5886 5884 5881 5878 5875 5871 5867 5865 5862 5858 5855 5852 5849 5846 5842 5839 5836 5832 5830 5825 5819 5818 5813 5811 5812 5817 5819 5817 5815 5815 5812 5811 5810 5811 5813 5814 5814
5895 5893 5891 5889 5888 5885 5883 5881 5878 5875 5871 5868 5865 5862 5860 5856 5853 5850 5848 5844 5841 5837 5835 5832 5828 5824 5820 5815 5810 5804 5803 5807 5809 5813 5811 5811 5808 5807 5808 5806 5808 5809 5809
5893 5890 5888 5886 5884 5881 5880 5878 5875 5872 5868 5864 5862 5859 5857 5854 5852 5848 5846 5843 5840 5838 5835 5832 5829 5823 5819 5813 5805 5803 5799 5799 5802 5806 5806 5805 5804 5804 5803 5803 5801 5798 5799
5890 5887 5885 5882 5881 5878 5876 5874 5871 5868 5864 5862 5859 5857 5855 5852 5849 5847 5845 5841 5838 5836 5834 5831 5827 5822 5818 5812 5804 5795 5790 5793 5795 5797 5800 5802 5802 5800 5800 5799 5795 5796 5796
5886 5883 5881 5877 5876 5874 5872 5870 5866 5863 5860 5858 5856 5854 5852 5850 5847 5845 5843 5840 5836 5834 5832 5829 5825 5821 5816 5812 5804 5797 5791 5789 5792 5794 5795 5797 5798 5797 5796 5793 5794 5794 5792
5883 5880 5877 5875 5873 5870 5866 5865 5862 5860 5857 5854 5853 5852 5850 5847 5845 5843 5841 5838 5834 5832 5830 5827 5824 5819 5813 5809 5803 5798 5793 5794 5795 5793 5792 5792 5794 5791 5791 5789 5788 5787 5784
5880 5877 5874 5872 5868 5863 5861 5860 5858 5856 5853 5851 5850 5849 5846 5844 5841 5839 5837 5835 5833 5830 5828 5825 5821 5818 5813 5809 5805 5800 5798 5795 5793 5790 5789 5788 5787 5788 5787 5785 5782 5780 5779
5873 5871 5867 5865 5862 5859 5857 5856 5854 5852 5849 5848 5847 5845 5843 5840 5838 5837 5835 5833 5831 5828 5824 5822 5817 5813 5810 5807 5802 5800 5797 5794 5792 5789 5787 5785 5782 5782 5783 5782 5779 5778 5777
5865 5863 5860 5858 5856 5855 5854 5851 5849 5847 5846 5844 5843 5842 5839 5837 5835 5833 5832 5830 5828 5824 5820 5817 5812 5809 5806 5802 5800 5797 5794 5791 5788 5786 5785 5782 5778 5775 5775 5774 5773 5773 5775
5860 5859 5855 5854 5850 5850 5849 5846 5845 5843 5842 5840 5839 5837 5835 5834 5832 5830 5828 5825 5823 5820 5816 5812 5808 5803 5800 5798 5794 5791 5790 5788 5785 5782 5781 5779 5777 5774 5771 5769 5766 5764 5764
5855 5855 5851 5849 5846 5846 5845 5842 5840 5840 5838 5837 5836 5834 5832 5831 5829 5827 5824 5820 5817 5813 5810 5806 5802 5798 5794 5789 5787 5786 5783 5781 5779 5777 5775 5773 5772 5771 5768 5765 5763 5760 5759
5849 5848 5846 5843 5842 5840 5839 5837 5836 5835 5834 5833 5831 5830 5828 5826 5824 5822 5818 5815 5811 5807 5804 5800 5795 5791 5787 5784 5780 5778 5776 5773 5772 5771 5770 5767 5765 5764 5762 5760 5757 5755 5753
5844 5841 5840 5838 5836 5835 5834 5833 5832 5831 5830 5828 5826 5824 5822 5820 5818 5816 5812 5808 5805 5801 5798 5794 5789 5784 5779 5777 5774 5773 5770 5768 5766 5763 5761 5760 5759 5756 5754 5753 5751 5748 5745
5836 5834 5833 5832 5831 5830 5829 5828 5827 5825 5824 5821 5819 5818 5816 5815 5813 5810 5807 5804 5801 5797 5793 5789 5784 5780 5776 5771 5768 5765 5764 5762 5759 5756 5754 5753 5751 5749 5747 5746 5743 5740 5737
5828 5826 5825 5825 5824 5824 5823 5822 5821 5820 5817 5816 5814 5812 5810 5809 5806 5804 5802 5798 5794 5791 5787 5783 5779 5775 5771 5767 5763 5759 5756 5754 5752 5750 5748 5745 5742 5740 5738 5736 5734 5731 5728
5821 5819 5819 5818 5818 5817 5817 5817 5816 5814 5812 5810 5809 5807 5805 5802 5800 5798 5795 5791 5787 5784 5780 5776 5772 5768 5764 5760 5756 5753 5749 5746 5744 5742 5738 5735 5733 5731 5729 5726 5724 5722 5718
5815 5813 5812 5812 5811 5811 5811 5811 5810 5808 5806 5804 5803 5801 5799 5796 5793 5789 5786 5782 5779 5775 5772 5768 5763 5759 5755 5752 5747 5743 5738 5735 5732 5730 5728 5725 5723 5721 5718 5716 5712 5709 5706
5808 5807 5806 5805 5805 5805 5805 5805 5804 5802 5800 5799 5797 5795 5792 5789 5786 5782 5777 5774 5769 5766 5761 5757 5753 5747 5743 5739 5735 5730 5727 5723 5719 5715 5712 5708 5705 5702 5700 5698 5696 5693 5691